Home > Weather > Corner Brook > Past weeks

Flag for Canada Past Weather in Corner Brook, Newfoundland and Labrador, Canada — Yesterday and Last 2 Weeks

Now
70 °F

Passing clouds.


Feels Like: 70 °F
Forecast: 62 / 70 °F
Wind: 20 mph from Southwest

Location: Deer Lake

Current Time: Jun 28, 2016 at 11:38:01 PM

Latest Report: Jun 28, 2016 at 10:30 PM


Visibility: 15 mi

Pressure: 30.03 "Hg

Humidity: 57%

Dew Point: 54 °F

Location of Corner BrookLocation

Past Weather in Corner Brook — Graph

°F

Corner Brook Temperature Yesterday

Maximum temperature yesterday: 84 °F (at 3:30 PM)
Minimum temperature yesterday: 48 °F (at 4:30 AM)
Average temperature yesterday: 67 °F

High & Low Weather Summary for the Past Weeks

 TemperatureHumidityPressure
High84 °F (Jun 26, 2:30 PM)100% (Jun 14, 2:30 AM)30.21 "Hg (Jun 14, 2:30 AM)
Low30 °F (Jun 18, 4:18 AM)25% (Jun 28, 1:30 PM)29.49 "Hg (Jun 16, 2:30 AM)
Average60 °F70%29.85 "Hg
* Reported Jun 13 10:30 PM — Jun 28 10:30 PM, Corner Brook, Weather by CustomWeather, © 2016

Note: Actual official high and low records may vary slightly from our data, if they occured in-between our weather recording intervals... More about our weather records

Advertising

Corner Brook Weather History for the Previous 24 Hours

Scroll right to see more
 ConditionsComfort  
Time TempWeatherWind HumidityBarometerVisibility
10:30 PM
Tue, Jun 28
70 °FPassing clouds.20 mph57%30.03 "Hg15 mi
9:30 PM73 °FOvercast.18 mph50%30.02 "Hg15 mi
8:30 PM75 °FOvercast.17 mph44%30.01 "Hg15 mi
7:30 PM75 °FPartly sunny.20 mph47%30.00 "Hg15 mi
6:30 PM77 °FBroken clouds.20 mph51%29.98 "Hg15 mi
5:30 PM79 °FBroken clouds.25 mph42%29.98 "Hg15 mi
4:30 PM82 °FPartly sunny.22 mph30%29.96 "Hg15 mi
3:30 PM82 °FScattered clouds.24 mph25%29.95 "Hg15 mi
2:30 PM82 °FPassing clouds.29 mph25%29.95 "Hg15 mi
1:30 PM82 °FPassing clouds.28 mph25%29.96 "Hg15 mi
12:30 PM81 °FPassing clouds.26 mph26%29.96 "Hg15 mi
11:30 AM77 °FPassing clouds.22 mph30%29.98 "Hg15 mi
10:30 AM77 °FPassing clouds.23 mph34%29.98 "Hg15 mi
9:30 AM73 °FPassing clouds.20 mph44%29.99 "Hg15 mi
8:30 AM70 °FPassing clouds.18 mph53%29.99 "Hg15 mi
7:30 AM66 °FPassing clouds.9 mph64%30.00 "Hg15 mi
6:30 AM64 °FPassing clouds.15 mph64%29.99 "Hg15 mi
5:30 AM63 °FPassing clouds.8 mph73%29.99 "Hg15 mi
4:30 AM63 °FPassing clouds.7 mph73%29.98 "Hg15 mi
3:30 AM66 °FClear.10 mph68%29.97 "Hg15 mi
2:30 AM59 °FClear.8 mph88%29.98 "Hg15 mi
1:30 AM55 °FClear.6 mph94%29.98 "Hg15 mi
12:30 AM59 °FClear.2 mph88%29.97 "Hg15 mi
11:30 PM
Mon, Jun 27
63 °FPassing clouds.12 mph83%29.98 "Hg15 mi
Weather by CustomWeather, © 2016

See weather overviewHow to use our weather pages